H1 CPF 1 NER 2022 2 27 9 5581 glonass139 H2 1808601 9139 43687 2022 2 27 0 0 0 2022 3 2 23 45 0 900 1 1 0 0 0 H9 10 0 59637 0.00000 0 10882927.425 4965500.631 -22515794.900 10 0 59637 900.00000 0 11049093.713 7688584.542 -21653396.412 10 0 59637 1800.00000 0 11395702.554 10261330.289 -20369901.223 10 0 59637 2700.00000 0 11893738.390 12622899.955 -18690274.640 10 0 59637 3600.00000 0 12504399.818 14720121.920 -16647191.282 10 0 59637 4500.00000 0 13180827.366 16509472.770 -14280397.840 10 0 59637 5400.00000 0 13870188.042 17958661.794 -11635937.297 10 0 59637 6300.00000 0 14516028.242 19047752.653 -8765249.697 10 0 59637 7200.00000 0 15060795.136 19769776.147 -5724167.248 10 0 59637 8100.00000 0 15448419.397 20130809.532 -2571823.626 10 0 59637 9000.00000 0 15626849.512 20149520.348 630500.817 10 0 59637 9900.00000 0 15550429.968 19856195.227 3820574.800 10 0 59637 10800.00000 0 15182022.240 19291296.003 6936428.990 10 0 59637 11700.00000 0 14494778.530 18503605.235 9917561.911 10 0 59637 12600.00000 0 13473492.981 17548040.423 12706114.956 10 0 59637 13500.00000 0 12115473.040 16483229.982 15247993.565 10 0 59637 14400.00000 0 10430893.927 15368953.639 17493912.898 10 0 59637 15300.00000 0 8442620.967 14263555.328 19400348.017 10 0 59637 16200.00000 0 6185506.700 13221437.288 20930370.795 10 0 59637 17100.00000 0 3705191.546 12290740.313 22054358.185 10 0 59637 18000.00000 0 1056457.342 11511306.916 22750558.908 10 0 59637 18900.00000 0 -1698798.629 10913012.071 23005508.582 10 0 59637 19800.00000 0 -4493886.026 10514530.681 22814285.934 10 0 59637 20700.00000 0 -7259844.947 10322592.671 22180605.721 10 0 59637 21600.00000 0 -9928067.144 10331756.278 21116746.803 10 0 59637 22500.00000 0 -12432907.584 10524708.621 19643316.691 10 0 59637 23400.00000 0 -14714179.124 10873080.795 17788856.780 10 0 59637 24300.00000 0 -16719427.928 11338743.296 15589295.312 10 0 59637 25200.00000 0 -18405895.999 11875527.610 13087257.837 10 0 59637 26100.00000 0 -19742089.855 12431301.870 10331247.748 10 0 59637 27000.00000 0 -20708890.551 12950313.523 7374711.928 10 0 59637 27900.00000 0 -21300159.104 13375700.479 4275008.929 10 0 59637 28800.00000 0 -21522812.192 13652064.839 1092299.296 10 0 59637 29700.00000 0 -21396365.185 13728000.346 -2111620.694 10 0 59637 30600.00000 0 -20951961.818 13558466.250 -5274519.251 10 0 59637 31500.00000 0 -20230931.448 13106906.553 -8334939.613 10 0 59637 32400.00000 0 -19282934.787 12347024.038 -11233397.046 10 0 59637 33300.00000 0 -18163776.433 11264132.902 -13913538.614 10 0 59637 34200.00000 0 -16932976.610 9856031.531 -16323242.585 10 0 59637 35100.00000 0 -15651204.715 8133357.094 -18415635.759 10 0 59637 36000.00000 0 -14377683.026 6119405.454 -20150008.609 10 0 59637 36900.00000 0 -13167670.138 3849422.454 -21492610.205 10 0 59637 37800.00000 0 -12070130.231 1369394.818 -22417307.370 10 0 59637 38700.00000 0 -11125686.230 -1265610.116 -22906095.293 10 0 59637 39600.00000 0 -10364942.981 -3993487.538 -22949449.597 10 0 59637 40500.00000 0 -9807250.765 -6747436.953 -22546513.111 10 0 59637 41400.00000 0 -9459960.884 -9458505.855 -21705113.654 10 0 59637 42300.00000 0 -9318204.337 -12058229.829 -20441612.403 10 0 59637 43200.00000 0 -9365202.442 -14481259.715 -18780585.695 10 0 59637 44100.00000 0 -9573095.823 -16667866.767 -16754346.245 10 0 59637 45000.00000 0 -9904256.299 -18566221.712 -14402312.998 10 0 59637 45900.00000 0 -10313025.683 -20134353.054 -11770241.781 10 0 59637 46800.00000 0 -10747807.436 -21341703.300 -8909331.739 10 0 59637 47700.00000 0 -11153422.078 -22170218.604 -5875225.181 10 0 59637 48600.00000 0 -11473626.028 -22614927.001 -2726920.634 10 0 59637 49500.00000 0 -11653686.578 -22683981.947 474379.307 10 0 59637 50400.00000 0 -11642903.349 -22398170.420 3666462.239 10 0 59637 51300.00000 0 -11396968.923 -21789907.480 6787318.517 10 0 59637 52200.00000 0 -10880068.200 -20901760.797 9776348.045 10 0 59637 53100.00000 0 -10066627.335 -19784568.355 12575537.314 10 0 59637 54000.00000 0 -8942637.959 -18495229.500 15130583.729 10 0 59637 54900.00000 0 -7506500.478 -17094262.923 17391945.437 10 0 59637 55800.00000 0 -5769350.548 -15643234.623 19315796.618 10 0 59637 56700.00000 0 -3754854.509 -14202163.869 20864870.331 10 0 59637 57600.00000 0 -1498481.657 -12827015.671 22009173.394 10 0 59637 58500.00000 0 953716.948 -11567384.284 22726560.285 10 0 59637 59400.00000 0 3546773.208 -10464463.866 23003155.877 10 0 59637 60300.00000 0 6218842.066 -9549390.234 22833619.567 10 0 59637 61200.00000 0 8903533.296 -8842022.105 22221246.221 10 0 59637 62100.00000 0 11532439.474 -8350211.814 21177902.282 10 0 59637 63000.00000 0 14037756.521 -8069595.209 19723798.186 10 0 59637 63900.00000 0 16354889.165 -7983908.950 17887101.196 10 0 59637 64800.00000 0 18424934.257 -8065821.466 15703395.511 10 0 59637 65700.00000 0 20196939.615 -8278242.547 13214999.351 10 0 59637 66600.00000 0 21629845.005 -8576056.494 10470151.416 10 0 59637 67500.00000 0 22694024.861 -8908205.963 7522081.681 10 0 59637 68400.00000 0 23372368.600 -9220038.710 4427983.841 10 0 59637 69300.00000 0 23660853.404 -9455818.239 1247908.909 10 0 59637 70200.00000 0 23568585.519 -9561292.080 -1956398.812 10 0 59637 71100.00000 0 23117308.256 -9486208.738 -5122700.827 10 0 59637 72000.00000 0 22340397.276 -9186676.246 -8189475.024 10 0 59637 72900.00000 0 21281385.398 -8627261.665 -11097113.863 10 0 59637 73800.00000 0 19992078.947 -7782741.629 -13789086.488 10 0 59637 74700.00000 0 18530345.020 -6639428.707 -16213041.576 10 0 59637 75600.00000 0 16957662.861 -5196016.088 -18321829.143 10 0 59637 76500.00000 0 15336542.450 -3463903.449 -20074421.098 10 0 59637 77400.00000 0 13727918.989 -1466988.722 -21436712.386 10 0 59637 78300.00000 0 12188632.792 759067.084 -22382187.071 10 0 59637 79200.00000 0 10769100.398 3168072.642 -22892436.388 10 0 59637 80100.00000 0 9511274.542 5704986.392 -22957518.683 10 0 59637 81000.00000 0 8446978.321 8307974.851 -22576154.285 10 0 59637 81900.00000 0 7596683.037 10910764.266 -21755751.495 10 0 59637 82800.00000 0 6968780.542 13445188.152 -20512263.110 10 0 59637 83700.00000 0 6559379.931 15843825.107 -18869876.171 10 0 59637 84600.00000 0 6352636.394 18042617.309 -16860540.762 10 0 59637 85500.00000 0 6321597.532 19983360.691 -14523346.946 10 0 59638 0.00000 0 6429530.569 21615962.959 -11903762.100 10 0 59638 900.00000 0 6631673.562 22900376.206 -9052742.043 10 0 59638 1800.00000 0 6877335.554 23808121.395 -6025737.083 10 0 59638 2700.00000 0 7112256.093 24323344.328 -2881607.918 10 0 59638 3600.00000 0 7281123.270 24443357.158 318523.571 10 0 59638 4500.00000 0 7330142.860 24178644.432 3512467.007 10 0 59638 5400.00000 0 7209549.047 23552334.218 6638175.677 10 0 59638 6300.00000 0 6875949.782 22599157.530 9634954.107 10 0 59638 7200.00000 0 6294407.059 21363940.779 12444637.058 10 0 59638 8100.00000 0 5440163.702 19899695.529 15012716.901 10 0 59638 9000.00000 0 4299943.376 18265386.463 17289397.591 10 0 59638 9900.00000 0 2872768.678 16523471.700 19230554.995 10 0 59638 10800.00000 0 1170262.413 14737318.717 20798585.655 10 0 59638 11700.00000 0 -783581.200 12968603.847 21963128.249 10 0 59638 12600.00000 0 -2953146.481 11274803.651 22701644.664 10 0 59638 13500.00000 0 -5292437.009 9706882.177 22999850.298 10 0 59638 14400.00000 0 -7746756.462 8307269.648 22851986.051 10 0 59638 15300.00000 0 -10254760.710 7108215.868 22260927.262 10 0 59638 16200.00000 0 -12750797.112 6130585.895 21238127.804 10 0 59638 17100.00000 0 -15167435.115 5383147.152 19803400.370 10 0 59638 18000.00000 0 -17438084.125 4862376.869 17984536.884 10 0 59638 18900.00000 0 -19499590.939 4552797.108 15816775.812 10 0 59638 19800.00000 0 -21294709.601 4427822.753 13342125.916 10 0 59638 20700.00000 0 -22774341.419 4451086.548 10608558.720 10 0 59638 21600.00000 0 -23899452.154 4578185.215 7669084.562 10 0 59638 22500.00000 0 -24642586.504 4758772.962 4580729.375 10 0 59638 23400.00000 0 -24988916.430 4938913.966 1403431.657 10 0 59638 24300.00000 0 -24936779.264 5063594.229 -1801119.271 10 0 59638 25200.00000 0 -24497682.723 5079286.270 -4970681.201 10 0 59638 26100.00000 0 -23695776.277 4936457.601 -8043669.616 10 0 59638 27000.00000 0 -22566810.811 4591916.088 -10960357.038 10 0 59638 27900.00000 0 -21156630.048 4010891.980 -13664037.439 10 0 59638 28800.00000 0 -19519256.979 3168767.419 -16102132.483 10 0 59638 29700.00000 0 -17714655.653 2052379.031 -18227217.729 10 0 59638 30600.00000 0 -15806262.267 660837.153 -19997948.532 10 0 59638 31500.00000 0 -13858389.211 -994174.287 -21379867.324 10 0 59638 32400.00000 0 -11933610.916 -2888631.436 -22346076.580 10 0 59638 33300.00000 0 -10090240.960 -4986929.402 -22877764.284 10 0 59638 34200.00000 0 -8380005.983 -7243135.915 -22964571.741 10 0 59638 35100.00000 0 -6846013.464 -9602688.550 -22604796.566 10 0 59638 36000.00000 0 -5521097.998 -12004465.609 -21805426.918 10 0 59638 36900.00000 0 -4426614.745 -14383144.939 -20582006.222 10 0 59638 37800.00000 0 -3571729.825 -16671752.829 -18958330.898 10 0 59638 38700.00000 0 -2953236.479 -18804296.991 -16965986.815 10 0 59638 39600.00000 0 -2555903.727 -20718373.827 -14643733.345 10 0 59638 40500.00000 0 -2353341.677 -22357641.201 -12036746.957 10 0 59638 41400.00000 0 -2309345.843 -23674053.371 -9195739.017 10 0 59638 42300.00000 0 -2379662.585 -24629764.550 -6175965.235 10 0 59638 43200.00000 0 -2514099.863 -25198621.556 -3036146.305 10 0 59638 44100.00000 0 -2658892.922 -25367183.229 162678.813 10 0 59638 45000.00000 0 -2759223.768 -25135224.261 3358343.988 10 0 59638 45900.00000 0 -2761786.828 -24515702.906 6488767.699 10 0 59638 46800.00000 0 -2617291.394 -23534194.655 9493161.368 10 0 59638 47700.00000 0 -2282794.315 -22227816.420 12313210.299 10 0 59638 48600.00000 0 -1723763.807 -20643687.184 14894204.084 10 0 59638 49500.00000 0 -915786.785 -18836990.303 17186094.632 10 0 59638 50400.00000 0 154152.617 -16868719.154 19144461.514 10 0 59638 51300.00000 0 1486877.530 -14803200.672 20731366.536 10 0 59638 52200.00000 0 3070739.765 -12705500.154 21916081.763 10 0 59638 53100.00000 0 4881870.350 -10638815.323 22675677.691 10 0 59638 54000.00000 0 6884949.517 -8661967.572 22995461.123 10 0 59638 54900.00000 0 9034464.904 -6827093.946 22869255.008 10 0 59638 55800.00000 0 11276406.547 -5177634.906 22299515.388 10 0 59638 56700.00000 0 13550329.237 -3746700.405 21297283.509 10 0 59638 57600.00000 0 15791697.682 -2555881.097 19881973.989 10 0 59638 58500.00000 0 17934417.970 -1614553.136 18081002.828 10 0 59638 59400.00000 0 19913451.090 -919704.508 15929261.935 10 0 59638 60300.00000 0 21667400.571 -456289.303 13468449.519 10 0 59638 61200.00000 0 23140966.934 -198094.454 10746268.573 10 0 59638 62100.00000 0 24287166.943 -109082.005 7815508.137 10 0 59638 63000.00000 0 25069225.014 -145150.103 4733024.431 10 0 59638 63900.00000 0 25462057.433 -256238.207 1558641.198 10 0 59638 64800.00000 0 25453286.908 -388687.359 -1646009.709 10 0 59638 65700.00000 0 25043744.362 -487755.395 -4818685.035 10 0 59638 66600.00000 0 24247436.357 -500180.248 -7897740.603 10 0 59638 67500.00000 0 23090978.957 -376682.215 -10823331.751 10 0 59638 68400.00000 0 21612521.268 -74298.465 -13538579.942 10 0 59638 69300.00000 0 19860203.430 441549.953 -15990682.348 10 0 59638 70200.00000 0 17890213.472 1195347.130 -18131942.412 10 0 59638 71100.00000 0 15764524.235 2200200.929 -19920701.079 10 0 59638 72000.00000 0 13548405.117 3457046.585 -21322150.233 10 0 59638 72900.00000 0 11307812.655 4954370.246 -22309012.512 10 0 59638 73800.00000 0 9106768.936 6668465.535 -22862074.205 10 0 59638 74700.00000 0 7004837.313 8564213.616 -22970560.873 10 0 59638 75600.00000 0 5054800.554 10596355.345 -22632348.441 10 0 59638 76500.00000 0 3300637.976 12711203.288 -21854005.627 10 0 59638 77400.00000 0 1775885.548 14848722.802 -20650666.814 10 0 59638 78300.00000 0 502446.717 16944895.786 -19045737.751 10 0 59638 79200.00000 0 -510097.249 18934268.710 -17070439.614 10 0 59638 80100.00000 0 -1264649.570 20752578.508 -14763200.194 10 0 59638 81000.00000 0 -1776227.387 22339346.532 -12168903.977 10 0 59638 81900.00000 0 -2071075.274 23640331.910 -9338015.670 10 0 59638 82800.00000 0 -2185301.502 24609741.344 -6325594.479 10 0 59638 83700.00000 0 -2163096.039 25212102.628 -3190218.601 10 0 59638 84600.00000 0 -2054606.886 25423723.247 7158.710 10 0 59638 85500.00000 0 -1913565.788 25233672.917 3204398.605 10 0 59639 0.00000 0 -1794764.898 24644249.169 6339387.648 10 0 59639 900.00000 0 -1751492.112 23670906.407 9351247.975 10 0 59639 1800.00000 0 -1833034.453 22341652.825 12181518.374 10 0 59639 2700.00000 0 -2082355.477 20695939.955 14775288.806 10 0 59639 3600.00000 0 -2534045.409 18783092.578 17082262.128 10 0 59639 4500.00000 0 -3212630.726 16660344.883 19057724.397 10 0 59639 5400.00000 0 -4131314.685 14390565.197 20663405.218 10 0 59639 6300.00000 0 -5291202.050 12039764.113 21868212.262 10 0 59639 7200.00000 0 -6681040.932 9674489.671 22648826.507 10 0 59639 8100.00000 0 -8277493.080 7359217.317 22990147.619 10 0 59639 9000.00000 0 -10045922.043 5153842.320 22885581.591 10 0 59639 9900.00000 0 -11941667.108 3111377.857 22337165.657 10 0 59639 10800.00000 0 -13911750.885 1275953.162 21355528.366 10 0 59639 11700.00000 0 -15896950.473 -318806.334 19959685.625 10 0 59639 12600.00000 0 -17834146.921 -1650950.665 18176676.315 10 0 59639 13500.00000 0 -19658856.118 -2710881.229 16041044.039 10 0 59639 14400.00000 0 -21307836.445 -3501503.732 13594174.246 10 0 59639 15300.00000 0 -22721664.949 -4037852.664 10883498.782 10 0 59639 16200.00000 0 -23847174.811 -4346203.751 7961582.478 10 0 59639 17100.00000 0 -24639652.242 -4462712.236 4885108.720 10 0 59639 18000.00000 0 -25064700.551 -4431634.698 1713783.265 10 0 59639 18900.00000 0 -25099692.809 -4303209.809 -1490822.765 10 0 59639 19800.00000 0 -24734751.501 -4131287.888 -4666468.307 10 0 59639 20700.00000 0 -23973213.235 -3970809.896 -7751452.706 10 0 59639 21600.00000 0 -22831558.173 -3875243.093 -10685817.175 10 0 59639 22500.00000 0 -21338806.329 -3894082.545 -13412513.590 10 0 59639 23400.00000 0 -19535405.342 -4070524.996 -15878517.329 10 0 59639 24300.00000 0 -17471655.760 -4439414.440 -18035862.150 10 0 59639 25200.00000 0 -15205739.296 -5025547.270 -19842576.631 10 0 59639 26100.00000 0 -12801432.265 -5842409.685 -21263503.708 10 0 59639 27000.00000 0 -10325599.497 -6891401.762 -22270987.260 10 0 59639 27900.00000 0 -7845573.121 -8161582.141 -22845412.402 10 0 59639 28800.00000 0 -5426525.454 -9629945.170 -22975588.932 10 0 59639 29700.00000 0 -3128945.215 -11262220.018 -22658970.547 10 0 59639 30600.00000 0 -1006321.882 -13014159.246 -21901705.519 10 0 59639 31500.00000 0 896865.686 -14833263.571 -20718517.810 10 0 59639 32400.00000 0 2546773.198 -16660871.246 -19132420.787 10 0 59639 33300.00000 0 3921360.526 -18434524.916 -17174268.974 10 0 59639 34200.00000 0 5011059.027 -20090516.954 -14882156.422 10 0 59639 35100.00000 0 5818909.949 -21566506.636 -12300673.321 10 0 59639 36000.00000 0 6360169.489 -22804099.242 -9480035.301 10 0 59639 36900.00000 0 6661398.548 -23751278.604 -6475102.575 10 0 59639 37800.00000 0 6759077.073 -24364590.692 -3344308.324 10 0 59639 38700.00000 0 6697802.936 -24610986.281 -148517.564 10 0 59639 39600.00000 0 6528152.817 -24469245.056 3050160.646 10 0 59639 40500.00000 0 6304296.819 -23930921.297 6189583.968 10 0 59639 41400.00000 0 6081468.818 -23000771.467 9208786.499 10 0 59639 42300.00000 0 5913400.402 -21696645.949 12049163.354 10 0 59639 43200.00000 0 5849827.594 -20048849.765 14655606.961 10 0 59639 44100.00000 0 5934176.105 -18098999.286 16977573.031 10 0 59639 45000.00000 0 6201523.111 -15898423.069 18970055.738 10 0 59639 45900.00000 0 6676921.579 -13506173.661 20594453.818 10 0 59639 46800.00000 0 7374157.766 -10986733.200 21819311.525 10 0 59639 47700.00000 0 8294994.234 -8407508.034 22620920.927 10 0 59639 48600.00000 0 9428930.342 -5836215.969 22983774.784 10 0 59639 49500.00000 0 10753490.680 -3338273.782 22900862.014 10 0 59639 50400.00000 0 12235029.912 -974292.493 22373800.590 10 0 59639 51300.00000 0 13830021.155 1202216.892 21412805.649 10 0 59639 52200.00000 0 15486774.984 3146833.236 20036493.421 10 0 59639 53100.00000 0 17147518.210 4825829.267 18271524.514 10 0 59639 54000.00000 0 18750746.591 6217324.314 16152092.914 10 0 59639 54900.00000 0 20233754.047 7311938.855 13719269.834 10 0 59639 55800.00000 0 21535233.258 8112924.542 11020214.360 10 0 59639 56700.00000 0 22597839.276 8635765.079 8107265.338 10 0 59639 57600.00000 0 23370608.864 8907265.391 5036931.404 10 0 59639 58500.00000 0 23811133.924 8964167.870 1868798.260 10 0 59639 59400.00000 0 23887397.315 8851354.442 -1335625.891 10 0 59639 60300.00000 0 23579193.249 8619710.696 -4514104.434 10 0 59639 61200.00000 0 22879071.627 8323742.715 -7604882.501 10 0 59639 62100.00000 0 21792765.647 8019047.828 -10547889.402 10 0 59639 63000.00000 0 20339083.599 7759746.827 -13285909.534 10 0 59639 63900.00000 0 18549268.409 7595986.905 -15765698.442 10 0 59639 64800.00000 0 16465850.817 7571621.661 -17939021.984 10 0 59639 65700.00000 0 14141043.415 7722167.082 -19763598.013 10 0 59639 66600.00000 0 11634742.102 8073120.668 -21203922.002 10 0 59639 67500.00000 0 9012217.915 8638715.584 -22231960.439 10 0 59639 68400.00000 0 6341595.122 9421163.296 -22827698.501 10 0 59639 69300.00000 0 3691220.404 10410417.498 -22979531.298 10 0 59639 70200.00000 0 1127032.377 11584470.136 -22684491.174 10 0 59639 71100.00000 0 -1289959.453 12910167.948 -21948306.579 10 0 59639 72000.00000 0 -3505981.670 14344515.843 -20785291.345 10 0 59639 72900.00000 0 -5476494.419 15836412.996 -19218066.401 10 0 59639 73800.00000 0 -7167796.847 17328749.120 -17277119.169 10 0 59639 74700.00000 0 -8558174.377 18760773.067 -15000209.121 10 0 59639 75600.00000 0 -9638540.996 20070634.283 -12431630.939 10 0 59639 76500.00000 0 -10412550.983 21197990.161 -9621349.604 10 0 59639 77400.00000 0 -10896176.750 22086569.348 -6624024.455 10 0 59639 78300.00000 0 -11116772.125 22686582.824 -3497941.475 10 0 59639 79200.00000 0 -11111662.090 22956880.902 -303875.017 10 0 59639 80100.00000 0 -10926319.921 22866765.002 2896098.275 10 0 59639 81000.00000 0 -10612210.168 22397377.664 6039809.682 10 0 59639 81900.00000 0 -10224389.834 21542612.148 9066208.735 10 0 59639 82800.00000 0 -9818970.171 20309503.307 11916549.560 10 0 59639 83700.00000 0 -9450547.103 18718083.332 14535530.021 10 0 59639 84600.00000 0 -9169709.332 16800708.405 16872361.588 10 0 59639 85500.00000 0 -9020729.514 14600884.515 18881749.338 10 0 59640 0.00000 0 -9039535.877 12171641.619 20524763.586 10 0 59640 900.00000 0 -9252049.636 9573522.356 21769587.796 10 0 59640 1800.00000 0 -9672957.902 6872272.034 22592126.956 10 0 59640 2700.00000 0 -10304973.552 4136320.891 22976468.529 10 0 59640 3600.00000 0 -11138613.131 1434165.526 22915185.510 10 0 59640 4500.00000 0 -12152502.275 -1168244.097 22409477.263 10 0 59640 5400.00000 0 -13314196.246 -3610004.725 21469145.616 10 0 59640 6300.00000 0 -14581481.877 -5837544.576 20112406.676 10 0 59640 7200.00000 0 -15904107.119 -7806599.179 18365541.765 10 0 59640 8100.00000 0 -17225866.687 -9483797.490 16262393.708 10 0 59640 9000.00000 0 -18486957.242 -10847793.462 13843717.459 10 0 59640 9900.00000 0 -19626504.125 -11889896.826 11156396.905 10 0 59640 10800.00000 0 -20585154.197 -12614177.672 8252542.150 10 0 59640 11700.00000 0 -21307626.169 -13037041.124 5188484.068 10 0 59640 12600.00000 0 -21745111.212 -13186290.506 2023685.144 10 0 59640 13500.00000 0 -21857422.505 -13099718.898 -1180412.592 10 0 59640 14400.00000 0 -21614802.619 -12823288.799 -4361580.262 10 0 59640 15300.00000 0 -20999311.723 -12408977.085 -7458012.061 10 0 59640 16200.00000 0 -20005737.077 -11912376.681 -10409528.609 10 0 59640 17100.00000 0 -18641984.301 -11390156.767 -13158749.916 10 0 59640 18000.00000 0 -16928932.738 -10897489.377 -15652214.624 10 0 59640 18900.00000 0 -14899759.734 -10485551.751 -17841423.346 10 0 59640 19800.00000 0 -12598761.006 -10199210.581 -19683785.513 10 0 59640 20700.00000 0 -10079715.560 -10074986.596 -21143450.979 10 0 59640 21600.00000 0 -7403862.584 -10139386.024 -22192010.155 10 0 59640 22500.00000 0 -4637574.083 -10407669.945 -22809049.002 10 0 59640 23400.00000 0 -1849819.730 -10883114.016 -22982548.086 10 0 59640 24300.00000 0 890470.998 -11556790.313 -22709117.970 10 0 59640 25200.00000 0 3517040.090 -12407881.019 -21994066.351 10 0 59640 26100.00000 0 5968816.547 -13404511.213 -20851295.572 10 0 59640 27000.00000 0 8192212.075 -14505066.081 -19303032.396 10 0 59640 27900.00000 0 10143101.913 -15659937.399 -17379395.116 10 0 59640 28800.00000 0 11788408.914 -16813625.870 -15117806.327 10 0 59640 29700.00000 0 13107225.678 -17907110.791 -12562262.676 10 0 59640 30600.00000 0 14091428.955 -18880387.053 -9762475.761 10 0 59640 31500.00000 0 14745761.760 -19675062.259 -6772901.134 10 0 59640 32400.00000 0 15087381.244 -20236904.073 -3651674.551 10 0 59640 33300.00000 0 15144892.817 -20518229.929 -459476.596 10 0 59640 34200.00000 0 14956912.701 -20480037.880 2741651.602 10 0 59640 35100.00000 0 14570221.036 -20093788.296 5889517.967 10 0 59640 36000.00000 0 14037584.799 -19342761.004 8922990.309 10 0 59640 36900.00000 0 13415343.592 -18222930.434 11783184.371 10 0 59640 37800.00000 0 12760861.111 -16743321.758 14414605.746 10 0 59640 38700.00000 0 12129950.433 -14925832.858 16766223.581 10 0 59640 39600.00000 0 11574382.002 -12804529.418 18792455.372 10 0 59640 40500.00000 0 11139579.328 -10424442.336 20454044.355 10 0 59640 41400.00000 0 10862599.187 -7839917.253 21718813.230 10 0 59640 42300.00000 0 10770480.888 -5112584.476 22562280.417 10 0 59640 43200.00000 0 10879033.532 -2309032.992 22968127.821 10 0 59640 44100.00000 0 11192111.818 501715.778 22928511.846 10 0 59640 45000.00000 0 11701410.507 3250830.649 22444212.220 10 0 59640 45900.00000 0 12386786.147 5872282.257 21524616.127 10 0 59640 46800.00000 0 13217092.758 8305336.567 20187537.958 10 0 59640 47700.00000 0 14151496.834 10496828.075 18458877.968 10 0 59640 48600.00000 0 15141217.106 12403119.569 16372125.887 10 0 59640 49500.00000 0 16131616.709 13991668.153 13967718.372 10 0 59640 50400.00000 0 17064560.566 15242133.169 11292261.986 10 0 59640 51300.00000 0 17880939.430 16146980.708 8397635.900 10 0 59640 52200.00000 0 18523254.790 16711560.057 5339990.983 10 0 59640 53100.00000 0 18938155.834 16953649.393 2178664.237 10 0 59640 54000.00000 0 19078821.397 16902490.242 -1024970.744 10 0 59640 54900.00000 0 18907085.908 16597351.694 -4208695.026 10 0 59640 55800.00000 0 18395218.863 16085685.137 -7310653.971 10 0 59640 56700.00000 0 17527281.722 15420947.727 -10270561.458 10 0 59640 57600.00000 0 16300003.744 14660186.794 -13030874.872 10 0 59640 58500.00000 0 14723138.519 13861487.572 -15537917.486 10 0 59640 59400.00000 0 12819284.783 13081392.491 -17742925.996 10 0 59640 60300.00000 0 10623177.576 12372401.390 -19603002.544 10 0 59640 61200.00000 0 8180478.242 11780658.626 -21081952.339 10 0 59640 62100.00000 0 5546112.695 11343925.037 -22150990.544 10 0 59640 63000.00000 0 2782226.342 11089920.629 -22789304.619 10 0 59640 63900.00000 0 -44159.785 11035108.154 -22984461.139 10 0 59640 64800.00000 0 -2863694.777 11183969.072 -22732649.261 10 0 59640 65700.00000 0 -5607340.095 11528802.589 -22038756.061 10 0 59640 66600.00000 0 -8208998.771 12050056.378 -20916272.230 10 0 59640 67500.00000 0 -10608022.701 12717175.126 -19387029.859 10 0 59640 68400.00000 0 -12751494.154 13489931.172 -17480777.273 10 0 59640 69300.00000 0 -14596186.941 14320181.070 -15234599.031 10 0 59640 70200.00000 0 -16110126.165 15153973.821 -12692192.293 10 0 59640 71100.00000 0 -17273682.282 15933921.560 -9903013.601 10 0 59640 72000.00000 0 -18080154.615 16601732.226 -6921312.858 10 0 59640 72900.00000 0 -18535821.122 17100796.805 -3805073.588 10 0 59640 73800.00000 0 -18659453.662 17378721.333 -614880.481 10 0 59640 74700.00000 0 -18481320.499 17389696.139 2587263.090 10 0 59640 75600.00000 0 -18041719.544 17096601.777 5739144.018 10 0 59640 76500.00000 0 -17389105.482 16472762.245 8779550.835 10 0 59640 77400.00000 0 -16577890.960 15503271.155 11649463.397 10 0 59640 78300.00000 0 -15666015.554 14185834.632 14293197.582 10 0 59640 79200.00000 0 -14712385.687 12531095.126 16659482.748 10 0 59640 80100.00000 0 -13774293.711 10562422.243 18702451.261 10 0 59640 81000.00000 0 -12904924.881 8315178.920 20382521.445 10 0 59640 81900.00000 0 -12151056.777 5835493.065 21667157.607 10 0 59640 82800.00000 0 -11551047.377 3178585.323 22531493.197 10 0 59640 83700.00000 0 -11133195.613 406721.716 22958805.969 10 0 59640 84600.00000 0 -10914542.472 -2413124.726 22940836.740 10 0 59640 85500.00000 0 -10900162.326 -5211807.339 22477946.151 99